�N����,����,�~����,�C��,���x,�C��,����,���ϕ���,�ő�u�ԕ���,�ő厞����,���˗�,�I�_���x,�n�����x,�ő啗���N��,DTYPE
"22/09/09","00:10",0.2,22.7,95.0,1008.6,302.1,0.3,0.9,293.0,0.00,21.9,25.3,"00:05:28",1
"22/09/09","00:20",0.2,22.7,95.1,1008.8,293.7,0.5,1.2,316.7,0.00,21.9,25.5,"00:13:04",1
"22/09/09","00:30",0.0,22.8,95.1,1009.0,301.0,0.5,1.0,316.0,0.00,22.0,25.0,"00:24:30",1
"22/09/09","00:40",0.0,22.8,95.2,1009.0,328.0,0.6,1.0,339.8,0.00,22.0,25.2,"00:36:26",1
"22/09/09","00:50",0.2,22.8,95.2,1008.8,330.1,0.6,1.0,349.0,0.00,22.0,25.3,"00:45:44",1
"22/09/09","01:00",0.4,22.8,95.3,1008.8,290.7,0.6,1.4,324.8,0.00,22.0,25.2,"00:58:42",1
"22/09/09","01:10",0.4,22.8,95.3,1008.8,277.2,0.6,1.2,246.3,0.00,22.0,25.1,"01:01:56",1
"22/09/09","01:20",0.4,22.7,95.4,1008.8,279.6,0.6,1.1,280.4,0.00,22.0,25.3,"01:11:18",1
"22/09/09","01:30",1.8,22.7,95.4,1008.6,293.7,0.6,1.6,327.5,0.00,22.0,25.1,"01:29:22",1
"22/09/09","01:40",2.4,22.7,95.5,1008.3,339.8,1.0,1.8,340.9,0.00,22.0,25.1,"01:35:12",1
"22/09/09","01:50",1.2,22.6,95.6,1008.3,285.3,0.5,1.2,244.8,0.00,21.9,25.1,"01:40:02",1
"22/09/09","02:00",0.4,22.6,95.6,1008.3,252.1,0.6,1.2,239.4,0.00,21.9,25.0,"01:50:08",1
"22/09/09","02:10",0.0,22.7,95.7,1007.8,243.7,0.8,1.3,229.3,0.00,22.0,25.0,"02:03:12",1
"22/09/09","02:20",0.0,22.7,95.7,1008.3,266.7,0.6,1.1,309.7,0.00,22.0,25.0,"02:14:00",1
"22/09/09","02:30",0.0,22.7,95.8,1008.1,304.0,0.5,1.3,344.1,0.00,22.0,25.0,"02:29:28",1
"22/09/09","02:40",0.0,22.7,95.8,1008.1,341.7,0.7,1.2,345.1,0.00,22.0,25.0,"02:36:40",1
"22/09/09","02:50",0.0,22.7,95.8,1008.1,336.8,0.8,1.2,343.2,0.00,22.0,24.8,"02:42:00",1
"22/09/09","03:00",0.0,22.7,95.9,1007.8,338.0,0.7,1.2,349.3,0.00,22.1,24.9,"02:59:20",1
"22/09/09","03:10",0.0,22.7,95.9,1008.1,313.2,0.5,0.8,331.0,0.00,22.1,24.9,"03:00:08",1
"22/09/09","03:20",0.0,22.8,95.9,1007.8,8.5,0.1,0.9,348.7,0.00,22.2,25.0,"03:19:20",1
"22/09/09","03:30",0.0,22.7,96.0,1008.1,307.5,0.7,1.3,339.2,0.00,22.1,24.9,"03:28:40",1
"22/09/09","03:40",0.0,22.7,96.0,1008.1,305.6,0.8,1.7,341.3,0.00,22.1,24.7,"03:34:16",1
"22/09/09","03:50",0.0,22.7,96.1,1008.1,284.1,0.5,0.9,322.4,0.00,22.1,24.9,"03:41:52",1
"22/09/09","04:00",0.0,22.7,96.1,1008.1,303.8,0.6,1.1,331.5,0.00,22.1,24.8,"03:56:40",1
"22/09/09","04:10",0.0,22.7,96.1,1008.3,290.3,0.5,1.1,334.0,0.00,22.1,25.0,"04:01:28",1
"22/09/09","04:20",0.0,22.7,96.2,1008.3,295.0,0.5,0.8,334.6,0.00,22.1,24.9,"04:15:36",1
"22/09/09","04:30",0.0,22.7,96.2,1008.1,298.7,0.6,1.0,338.2,0.00,22.1,24.9,"04:26:40",1
"22/09/09","04:40",0.0,22.7,96.2,1008.3,305.7,0.7,1.6,327.7,0.00,22.1,24.9,"04:36:40",1
"22/09/09","04:50",0.0,22.7,96.3,1008.3,322.3,0.8,1.3,343.0,0.00,22.1,24.8,"04:41:28",1
"22/09/09","05:00",0.2,22.8,96.3,1008.3,312.8,0.6,1.0,342.2,0.00,22.2,24.8,"04:50:08",1
"22/09/09","05:10",0.0,22.7,96.3,1008.1,306.2,0.8,2.0,329.0,0.00,22.1,24.8,"05:09:28",1
"22/09/09","05:20",0.0,22.7,96.4,1008.3,309.6,1.1,2.1,340.0,0.00,22.1,24.8,"05:12:24",1
"22/09/09","05:30",0.0,22.7,96.4,1008.6,326.5,0.8,1.3,325.2,0.00,22.1,24.8,"05:24:24",1
"22/09/09","05:40",0.0,22.8,96.4,1008.6,280.6,0.5,0.8,263.2,0.00,22.2,25.0,"05:34:08",1
"22/09/09","05:50",0.0,22.7,96.4,1008.3,321.0,0.7,1.3,346.9,0.00,22.1,24.7,"05:45:28",1
"22/09/09","06:00",2.2,22.7,96.5,1008.3,316.9,0.2,0.6,350.6,0.00,22.2,24.7,"05:54:00",1
"22/09/09","06:10",3.0,22.8,96.5,1008.6,338.4,0.5,1.3,344.5,0.00,22.3,24.9,"06:09:28",1
"22/09/09","06:20",1.6,22.7,96.5,1008.6,322.8,0.8,1.4,338.1,0.00,22.2,24.7,"06:11:28",1
"22/09/09","06:30",1.8,22.7,96.5,1008.6,316.4,0.8,1.7,327.1,0.00,22.2,24.8,"06:21:28",1
"22/09/09","06:40",0.4,22.7,96.6,1008.8,315.4,1.1,2.0,331.4,0.00,22.2,24.5,"06:32:56",1
"22/09/09","06:50",0.0,22.7,96.6,1008.6,331.0,1.1,1.8,345.7,0.00,22.2,24.5,"06:44:32",1
"22/09/09","07:00",0.0,22.8,96.7,1008.6,328.7,1.0,2.0,316.3,0.00,22.3,24.5,"06:51:36",1
"22/09/09","07:10",0.0,22.8,96.7,1008.8,316.0,0.8,1.9,336.6,0.00,22.3,24.7,"07:05:20",1
"22/09/09","07:20",0.0,22.9,96.7,1008.6,312.4,1.0,1.8,318.7,0.01,22.4,24.6,"07:12:56",1
"22/09/09","07:30",0.0,23.1,96.8,1008.6,319.3,1.1,2.0,330.8,0.08,22.6,24.7,"07:25:12",1
"22/09/09","07:40",0.0,23.4,96.7,1008.6,312.4,1.0,1.7,331.0,0.06,22.9,24.7,"07:30:08",1
"22/09/09","07:50",0.0,23.5,96.6,1008.8,330.3,0.8,1.8,325.6,0.05,23.0,24.6,"07:41:28",1
"22/09/09","08:00",0.0,23.6,96.6,1008.8,332.6,1.0,1.9,329.2,0.04,23.1,24.6,"07:53:04",1
"22/09/09","08:10",0.0,23.6,96.7,1009.0,339.9,0.7,1.7,334.2,0.03,23.1,24.7,"08:08:16",1
"22/09/09","08:20",0.0,23.9,96.8,1008.8,337.1,1.2,2.1,346.9,0.12,23.4,24.4,"08:19:28",1
"22/09/09","08:30",0.0,23.8,96.6,1009.0,313.9,1.5,2.9,334.3,0.10,23.3,24.7,"08:26:00",1
"22/09/09","08:40",0.0,24.1,96.6,1008.6,294.0,1.1,2.5,303.3,0.12,23.6,24.4,"08:32:24",1
"22/09/09","08:50",0.0,24.2,96.4,1008.6,291.9,1.2,2.7,321.1,0.12,23.6,24.6,"08:45:12",1
"22/09/09","09:00",0.0,24.1,96.2,1008.6,299.2,1.2,2.2,313.4,0.08,23.5,24.7,"08:55:52",1
"22/09/09","09:10",0.0,24.2,96.0,1008.8,311.3,1.0,2.0,332.7,0.05,23.6,24.9,"09:09:44",1
"22/09/09","09:20",0.0,24.2,96.2,1008.6,325.7,1.5,2.0,309.3,0.11,23.6,24.7,"09:10:32",1
"22/09/09","09:30",0.0,24.5,95.8,1008.8,318.4,1.3,2.9,347.0,0.19,23.8,24.8,"09:20:16",1
"22/09/09","09:40",0.0,24.9,95.5,1008.3,323.0,0.8,1.9,352.5,0.25,24.2,24.9,"09:32:16",1
"22/09/09","09:50",0.0,25.8,94.9,1008.3,324.3,0.6,1.8,5.1,0.36,25.0,24.8,"09:47:20",1
"22/09/09","10:00",0.0,26.6,93.9,1008.3,340.6,0.5,1.6,4.3,0.32,25.6,25.1,"09:56:24",1
"22/09/09","10:10",0.0,26.3,92.9,1008.6,307.5,0.7,1.9,350.5,0.28,25.1,25.0,"10:05:52",1
"22/09/09","10:20",0.0,26.5,91.9,1008.3,172.7,0.6,1.1,37.4,0.16,25.1,25.2,"10:11:12",1
"22/09/09","10:30",0.0,26.9,90.5,1008.3,88.4,0.3,1.3,73.1,0.13,25.3,24.9,"10:20:02",1
"22/09/09","10:40",0.0,26.9,88.6,1008.6,20.4,0.7,1.4,49.5,0.12,24.9,25.3,"10:30:32",1
"22/09/09","10:50",0.0,26.7,86.5,1007.8,354.8,1.1,2.9,344.4,0.07,24.3,25.2,"10:48:16",1
"22/09/09","11:00",0.0,26.3,85.9,1008.3,335.2,1.3,2.6,347.0,0.04,23.8,25.2,"10:50:24",1
"22/09/09","11:10",0.0,26.0,86.1,1007.8,321.4,1.2,2.7,325.5,0.04,23.5,25.2,"11:01:36",1
"22/09/09","11:20",0.0,25.9,86.5,1008.3,286.5,1.1,2.0,255.4,0.03,23.5,25.5,"11:12:48",1
"22/09/09","11:30",0.0,25.7,86.9,1008.3,318.1,1.3,2.6,336.2,0.03,23.4,25.3,"11:22:48",1
"22/09/09","11:40",0.0,25.8,87.3,1008.1,303.7,1.0,1.9,326.3,0.02,23.6,25.5,"11:30:40",1
"22/09/09","11:50",0.0,25.7,87.5,1008.1,305.9,1.0,2.1,346.3,0.03,23.5,25.5,"11:43:04",1
"22/09/09","12:00",0.0,25.9,87.6,1007.8,304.0,1.1,2.1,317.0,0.08,23.7,25.3,"11:50:40",1
"22/09/09","12:10",0.0,26.4,87.6,1007.8,314.6,1.1,2.8,342.6,0.14,24.2,25.5,"12:05:12",1
"22/09/09","12:20",0.0,26.9,86.5,1007.4,314.2,0.8,2.4,348.6,0.23,24.5,25.7,"12:12:32",1
"22/09/09","12:30",0.0,27.3,84.4,1007.8,317.5,0.8,2.2,331.6,0.23,24.5,25.4,"12:23:44",1
"22/09/09","12:40",0.0,27.5,82.7,1007.4,338.4,0.8,1.8,336.0,0.11,24.3,25.6,"12:30:24",1
"22/09/09","12:50",0.0,27.8,81.8,1006.9,343.9,0.5,1.4,338.2,0.17,24.4,25.5,"12:40:48",1
"22/09/09","13:00",0.0,28.3,80.5,1006.7,315.4,0.5,1.3,348.8,0.20,24.7,25.7,"12:50:56",1
"22/09/09","13:10",0.0,28.2,80.0,1006.7,329.9,0.7,1.9,326.5,0.18,24.5,25.4,"13:02:00",1
"22/09/09","13:20",0.0,28.6,79.7,1006.7,237.8,0.5,1.6,245.9,0.27,24.8,25.7,"13:10:08",1
"22/09/09","13:30",0.0,29.2,77.3,1007.1,282.2,0.8,2.6,346.9,0.43,24.9,25.7,"13:26:56",1
"22/09/09","13:40",0.0,28.8,77.1,1007.4,125.8,0.3,1.3,185.3,0.12,24.4,25.9,"13:36:08",1
"22/09/09","13:50",0.0,28.5,78.4,1007.1,200.8,0.8,2.0,220.8,0.12,24.4,26.0,"13:47:52",1
"22/09/09","14:00",0.0,28.4,79.0,1006.9,255.3,0.5,1.4,234.8,0.13,24.4,25.9,"13:52:16",1
"22/09/09","14:10",0.0,28.2,78.7,1006.7,270.0,0.7,2.5,340.8,0.08,24.2,25.8,"14:09:36",1
"22/09/09","14:20",0.0,27.9,80.1,1006.2,320.3,1.3,2.8,343.6,0.10,24.2,26.1,"14:19:44",1
"22/09/09","14:30",0.0,27.3,82.5,1005.7,319.2,2.0,3.5,328.7,0.08,24.1,26.1,"14:22:24",1
"22/09/09","14:40",0.0,26.9,84.4,1006.0,311.8,1.3,2.5,331.3,0.05,24.1,26.1,"14:34:32",1
"22/09/09","14:50",0.0,27.0,85.8,1006.0,315.4,1.3,2.6,324.7,0.08,24.5,26.1,"14:41:28",1
"22/09/09","15:00",0.0,26.8,86.2,1006.2,310.8,1.6,4.2,337.0,0.09,24.3,26.2,"14:52:08",1
"22/09/09","15:10",0.0,26.8,86.3,1006.2,320.9,1.3,3.1,326.6,0.09,24.4,26.2,"15:09:04",1
"22/09/09","15:20",0.0,27.1,86.4,1006.0,312.6,1.1,2.6,311.8,0.11,24.7,26.0,"15:16:40",1
"22/09/09","15:30",0.0,27.3,86.2,1006.0,329.3,1.2,2.1,350.6,0.11,24.8,26.2,"15:21:12",1
"22/09/09","15:40",0.0,27.5,85.7,1006.0,344.1,1.1,2.4,355.4,0.13,24.9,26.2,"15:37:20",1
"22/09/09","15:50",0.0,27.4,85.2,1006.0,316.2,1.2,2.7,319.7,0.10,24.7,26.2,"15:45:04",1
"22/09/09","16:00",0.0,27.6,84.9,1005.7,278.6,0.7,1.8,316.6,0.13,24.9,26.3,"15:54:24",1
"22/09/09","16:10",0.0,28.0,83.9,1005.7,313.2,1.0,2.5,357.5,0.19,25.1,26.3,"16:08:40",1
"22/09/09","16:20",0.0,28.3,82.6,1005.7,322.2,1.2,3.1,347.3,0.20,25.1,26.0,"16:12:56",1
"22/09/09","16:30",0.0,28.2,82.0,1005.7,323.7,1.2,2.7,322.1,0.09,24.9,26.3,"16:22:32",1
"22/09/09","16:40",0.0,28.1,82.1,1005.5,342.0,1.0,1.9,345.0,0.07,24.8,26.3,"16:32:08",1
"22/09/09","16:50",0.0,27.8,82.0,1005.0,333.2,1.5,2.8,342.1,0.08,24.5,26.6,"16:47:52",1
"22/09/09","17:00",0.0,27.8,82.0,1005.5,336.3,1.0,2.8,359.1,0.06,24.5,26.2,"16:51:12",1
"22/09/09","17:10",0.0,27.6,82.1,1005.5,334.8,1.2,2.7,340.6,0.05,24.3,26.4,"17:05:44",1
"22/09/09","17:20",0.0,27.9,81.6,1005.5,343.5,1.3,3.2,4.3,0.08,24.5,26.2,"17:15:36",1
"22/09/09","17:30",0.0,27.6,81.4,1006.2,341.7,1.5,3.6,323.5,0.06,24.2,26.4,"17:24:56",1
"22/09/09","17:40",0.0,27.6,80.8,1006.2,341.5,1.5,3.7,346.7,0.04,24.0,26.5,"17:31:52",1
"22/09/09","17:50",0.0,27.0,81.0,1006.4,339.1,2.0,4.2,346.6,0.00,23.5,26.4,"17:42:08",1
"22/09/09","18:00",0.0,26.8,81.3,1006.7,324.1,1.5,3.1,316.5,0.00,23.4,26.6,"17:53:36",1
"22/09/09","18:10",0.0,26.7,81.9,1006.4,330.2,1.1,2.0,350.1,0.00,23.4,26.5,"18:08:52",1
"22/09/09","18:20",0.0,26.5,82.1,1006.9,305.1,1.2,2.8,326.5,0.00,23.2,26.5,"18:13:12",1
"22/09/09","18:30",0.0,26.4,82.5,1007.1,351.1,0.8,1.8,354.6,0.00,23.2,26.5,"18:27:28",1
"22/09/09","18:40",0.0,26.3,82.8,1006.9,324.0,0.7,1.3,350.6,0.00,23.2,26.4,"18:30:40",1
"22/09/09","18:50",0.0,26.2,83.2,1007.1,344.3,1.0,1.9,1.9,0.00,23.2,26.4,"18:46:32",1
"22/09/09","19:00",0.0,26.1,83.8,1007.1,337.7,1.0,1.6,342.1,0.00,23.2,26.5,"18:53:44",1
"22/09/09","19:10",0.0,25.8,84.8,1007.6,344.4,0.8,1.4,353.0,0.00,23.1,26.4,"19:08:40",1
"22/09/09","19:20",0.0,25.5,85.6,1007.8,321.3,1.2,1.9,338.8,0.00,22.9,26.5,"19:13:52",1
"22/09/09","19:30",0.0,25.3,86.3,1007.4,308.9,1.3,3.7,359.1,0.00,22.9,26.4,"19:27:44",1
"22/09/09","19:40",0.0,25.3,86.5,1007.4,308.5,1.6,2.6,321.1,0.00,22.9,26.3,"19:32:40",1
"22/09/09","19:50",0.0,25.3,86.3,1007.8,311.7,2.2,3.9,332.9,0.00,22.9,26.2,"19:47:12",1
"22/09/09","20:00",0.0,25.4,86.1,1007.4,326.3,1.7,4.1,345.3,0.00,22.9,26.4,"19:50:40",1
"22/09/09","20:10",0.0,25.3,86.1,1007.8,319.0,1.2,3.5,324.3,0.00,22.8,26.1,"20:05:44",1
"22/09/09","20:20",0.0,25.3,86.1,1008.6,303.0,1.0,1.8,342.5,0.00,22.8,26.4,"20:10:08",1
"22/09/09","20:30",0.0,25.3,86.1,1008.6,317.4,1.0,1.8,315.3,0.00,22.8,26.4,"20:20:48",1
"22/09/09","20:40",0.0,25.2,86.3,1008.6,282.0,0.3,1.1,344.8,0.00,22.8,26.3,"20:39:52",1
"22/09/09","20:50",0.0,25.1,86.7,1008.8,327.6,0.8,1.1,331.9,0.00,22.8,26.2,"20:40:40",1
"22/09/09","21:00",0.0,25.1,87.3,1008.8,320.2,0.7,1.6,352.5,0.00,22.9,26.1,"20:58:40",1
"22/09/09","21:10",0.0,24.9,87.9,1008.8,328.5,1.2,1.9,341.6,0.00,22.8,26.3,"21:00:16",1
"22/09/09","21:20",0.0,24.8,88.4,1009.0,323.1,1.2,2.0,322.5,0.00,22.8,26.0,"21:18:00",1
"22/09/09","21:30",0.0,24.6,88.9,1008.8,306.9,1.1,2.2,334.7,0.00,22.7,26.2,"21:20:16",1
"22/09/09","21:40",0.0,24.6,89.2,1008.8,306.8,1.1,1.9,337.2,0.00,22.7,26.1,"21:36:32",1
"22/09/09","21:50",0.0,24.6,89.4,1009.0,308.7,1.0,1.8,331.5,0.00,22.8,26.1,"21:43:12",1
"22/09/09","22:00",0.0,24.5,89.6,1009.3,330.8,0.8,1.4,322.8,0.00,22.7,25.8,"21:52:08",1
"22/09/09","22:10",0.0,24.4,89.8,1009.5,319.0,0.7,1.4,347.7,0.00,22.7,26.1,"22:05:20",1
"22/09/09","22:20",0.0,24.4,90.0,1009.5,277.9,0.8,1.4,243.5,0.00,22.7,26.1,"22:16:56",1
"22/09/09","22:30",0.0,24.4,90.2,1009.3,320.3,0.6,1.1,328.4,0.00,22.7,25.9,"22:22:00",1
"22/09/09","22:40",0.0,24.3,90.3,1009.0,287.9,0.6,1.0,268.2,0.00,22.6,26.0,"22:36:00",1
"22/09/09","22:50",0.0,24.2,90.5,1009.3,303.0,1.1,1.7,344.5,0.00,22.6,26.0,"22:44:16",1
"22/09/09","23:00",0.0,24.3,90.4,1009.5,292.9,1.1,1.7,309.5,0.00,22.7,25.7,"22:50:32",1
"22/09/09","23:10",0.0,24.3,90.2,1009.3,293.8,1.0,2.1,327.5,0.00,22.6,26.0,"23:00:32",1
"22/09/09","23:20",0.0,24.3,89.9,1009.3,298.3,1.3,2.8,336.5,0.00,22.6,26.0,"23:19:12",1
"22/09/09","23:30",0.0,24.4,89.3,1009.5,319.5,1.6,2.9,304.9,0.00,22.6,25.7,"23:25:28",1
"22/09/09","23:40",0.0,24.5,88.6,1009.7,324.1,1.5,2.7,328.9,0.00,22.5,25.7,"23:37:52",1
"22/09/09","23:50",0.0,24.7,87.9,1009.3,329.2,1.8,3.3,342.8,0.00,22.6,25.8,"23:45:52",1
"22/09/09","24:00",0.0,24.8,87.3,1009.7,322.7,2.1,4.0,315.7,0.00,22.6,25.8,"23:50:24",1
